Location: Bidwell Hollow
(37.7387°N, 90.1707°W)
Time: 01:57:15
(UTC+00:00)

Tiros 1 despin weight - Pass Details

Date: 20 May 2026
Orbit: 554 x 591 km, 48.2° (Epoch: 6 June)

Event Time Altitude Azimuth Distance (km) Brightness Sun altitude
Rises 13:53:50 0° 306° (NW) 2,743 ? 34.9°
Reaches altitude 10° 13:56:13 10° 315° (NW) 1,842 ? 35.3°
Maximum altitude 14:00:09 38° 24° (NNE) 854 ? 36.1°
Drops below altitude 10° 14:04:04 10° 94° (E) 1,828 ? 36.9°
Sets 14:06:26 0° 102° (ESE) 2,720 ? 37.4°
